CCSDS_OMM_VERS = 2.0 CREATION_DATE = ORIGINATOR = OBJECT_NAME = CALSPHERE 1 OBJECT_ID = 1964-063C CENTER_NAME = EARTH REF_FRAME = TEME TIME_SYSTEM = UTC MEAN_ELEMENT_THEORY = SGP/SGP4 EPOCH = 2026-09-12T07:48:55.283040 MEAN_MOTION = 13.76701804 ECCENTRICITY = .00269573 INCLINATION = 90.2175 RA_OF_ASC_NODE = 73.7885 ARG_OF_PERICENTER = 32.5298 MEAN_ANOMALY = 86.0285 EPHEMERIS_TYPE = 0 CLASSIFICATION_TYPE = U NORAD_CAT_ID = 900 ELEMENT_SET_NO = 999 REV_AT_EPOCH = 8341 BSTAR = .42672E-3 MEAN_MOTION_DOT = .42900E-5 MEAN_MOTION_DDOT = 0 CCSDS_OMM_VERS = 2.0 CREATION_DATE = ORIGINATOR = OBJECT_NAME = CALSPHERE 2 OBJECT_ID = 1964-063E CENTER_NAME = EARTH REF_FRAME = TEME TIME_SYSTEM = UTC MEAN_ELEMENT_THEORY = SGP/SGP4 EPOCH = 2026-09-12T06:03:28.459872 MEAN_MOTION = 13.52906226 ECCENTRICITY = .00178845 INCLINATION = 90.2289 RA_OF_ASC_NODE = 77.8433 ARG_OF_PERICENTER = 340.5626 MEAN_ANOMALY = 194.1066 EPHEMERIS_TYPE = 0 CLASSIFICATION_TYPE = U NORAD_CAT_ID = 902 ELEMENT_SET_NO = 999 REV_AT_EPOCH = 86803 BSTAR = .35174E-4 MEAN_MOTION_DOT = .32000E-6 MEAN_MOTION_DDOT = 0 CCSDS_OMM_VERS = 2.0 CREATION_DATE = ORIGINATOR = OBJECT_NAME = LCS 1 OBJECT_ID = 1965-034C CENTER_NAME = EARTH REF_FRAME = TEME TIME_SYSTEM = UTC MEAN_ELEMENT_THEORY = SGP/SGP4 EPOCH = 2026-09-12T07:34:25.546944 MEAN_MOTION = 9.8931066 ECCENTRICITY = .00112491 INCLINATION = 32.1457 RA_OF_ASC_NODE = 330.1568 ARG_OF_PERICENTER = 70.9514 MEAN_ANOMALY = 289.2201 EPHEMERIS_TYPE = 0 CLASSIFICATION_TYPE = U NORAD_CAT_ID = 1361 ELEMENT_SET_NO = 999 REV_AT_EPOCH = 21851 BSTAR = .76740E-3 MEAN_MOTION_DOT = .14000E-6 MEAN_MOTION_DDOT = 0 CCSDS_OMM_VERS = 2.0 CREATION_DATE = ORIGINATOR = OBJECT_NAME = TEMPSAT 1 OBJECT_ID = 1965-065E CENTER_NAME = EARTH REF_FRAME = TEME TIME_SYSTEM = UTC MEAN_ELEMENT_THEORY = SGP/SGP4 EPOCH = 2026-09-12T08:09:47.238912 MEAN_MOTION = 13.33598263 ECCENTRICITY = .00700266 INCLINATION = 90.0055 RA_OF_ASC_NODE = 212.6096 ARG_OF_PERICENTER = 5.5959 MEAN_ANOMALY = 147.5915 EPHEMERIS_TYPE = 0 CLASSIFICATION_TYPE = U NORAD_CAT_ID = 1512 ELEMENT_SET_NO = 999 REV_AT_EPOCH = 97166 BSTAR = .34305E-4 MEAN_MOTION_DOT = .26000E-6 MEAN_MOTION_DDOT = 0 CCSDS_OMM_VERS = 2.0 CREATION_DATE = ORIGINATOR = OBJECT_NAME = CALSPHERE 4A OBJECT_ID = 1965-065H CENTER_NAME = EARTH REF_FRAME = TEME TIME_SYSTEM = UTC MEAN_ELEMENT_THEORY = SGP/SGP4 EPOCH = 2026-09-12T02:31:02.800128 MEAN_MOTION = 13.3629066 ECCENTRICITY = .00683791 INCLINATION = 89.8909 RA_OF_ASC_NODE = 121.6135 ARG_OF_PERICENTER = 217.3398 MEAN_ANOMALY = 307.4469 EPHEMERIS_TYPE = 0 CLASSIFICATION_TYPE = U NORAD_CAT_ID = 1520 ELEMENT_SET_NO = 999 REV_AT_EPOCH = 97431 BSTAR = .13597E-3 MEAN_MOTION_DOT = .80000E-6 MEAN_MOTION_DDOT = 0 CCSDS_OMM_VERS = 2.0 CREATION_DATE = ORIGINATOR = OBJECT_NAME = OPS 5712 (P/L 160) OBJECT_ID = 1967-053A CENTER_NAME = EARTH REF_FRAME = TEME TIME_SYSTEM = UTC MEAN_ELEMENT_THEORY = SGP/SGP4 EPOCH = 2026-09-12T06:31:17.772672 MEAN_MOTION = 14.78689347 ECCENTRICITY = .00041407 INCLINATION = 69.9169 RA_OF_ASC_NODE = 184.6731 ARG_OF_PERICENTER = 273.1675 MEAN_ANOMALY = 86.9 EPHEMERIS_TYPE = 0 CLASSIFICATION_TYPE = U NORAD_CAT_ID = 2826 ELEMENT_SET_NO = 999 REV_AT_EPOCH = 7910 BSTAR = .67157E-3 MEAN_MOTION_DOT = .48580E-4 MEAN_MOTION_DDOT = 0 CCSDS_OMM_VERS = 2.0 CREATION_DATE = ORIGINATOR = OBJECT_NAME = OPS 5712 (P/L 153) OBJECT_ID = 1967-053H CENTER_NAME = EARTH REF_FRAME = TEME TIME_SYSTEM = UTC MEAN_ELEMENT_THEORY = SGP/SGP4 EPOCH = 2026-09-12T03:04:40.416384 MEAN_MOTION = 13.96838863 ECCENTRICITY = .0004533 INCLINATION = 69.9728 RA_OF_ASC_NODE = 288.9538 ARG_OF_PERICENTER = 77.2983 MEAN_ANOMALY = 282.863 EPHEMERIS_TYPE = 0 CLASSIFICATION_TYPE = U NORAD_CAT_ID = 2874 ELEMENT_SET_NO = 999 REV_AT_EPOCH = 1893 BSTAR = .34363E-4 MEAN_MOTION_DOT = -.50000E-7 MEAN_MOTION_DDOT = 0 CCSDS_OMM_VERS = 2.0 CREATION_DATE = ORIGINATOR = OBJECT_NAME = RIGIDSPHERE 2 (LCS 4) OBJECT_ID = 1971-067E CENTER_NAME = EARTH REF_FRAME = TEME TIME_SYSTEM = UTC MEAN_ELEMENT_THEORY = SGP/SGP4 EPOCH = 2026-09-12T05:57:57.510720 MEAN_MOTION = 14.37954016 ECCENTRICITY = .00577361 INCLINATION = 87.6218 RA_OF_ASC_NODE = 314.6468 ARG_OF_PERICENTER = 305.1606 MEAN_ANOMALY = 54.4192 EPHEMERIS_TYPE = 0 CLASSIFICATION_TYPE = U NORAD_CAT_ID = 5398 ELEMENT_SET_NO = 999 REV_AT_EPOCH = 88639 BSTAR = .12703E-3 MEAN_MOTION_DOT = .40800E-5 MEAN_MOTION_DDOT = 0 CCSDS_OMM_VERS = 2.0 CREATION_DATE = ORIGINATOR = OBJECT_NAME = COSMOS 2493 (SKRL-756 1) OBJECT_ID = 2013-078A CENTER_NAME = EARTH REF_FRAME = TEME TIME_SYSTEM = UTC MEAN_ELEMENT_THEORY = SGP/SGP4 EPOCH = 2026-09-12T06:28:30.570528 MEAN_MOTION = 15.02545759 ECCENTRICITY = .00117732 INCLINATION = 82.4159 RA_OF_ASC_NODE = 175.9746 ARG_OF_PERICENTER = 315.6498 MEAN_ANOMALY = 44.3783 EPHEMERIS_TYPE = 0 CLASSIFICATION_TYPE = U NORAD_CAT_ID = 39490 ELEMENT_SET_NO = 999 REV_AT_EPOCH = 69103 BSTAR = .17869E-3 MEAN_MOTION_DOT = .24040E-4 MEAN_MOTION_DDOT = 0 CCSDS_OMM_VERS = 2.0 CREATION_DATE = ORIGINATOR = OBJECT_NAME = COSMOS 2494 (SKRL-756 2) OBJECT_ID = 2013-078B CENTER_NAME = EARTH REF_FRAME = TEME TIME_SYSTEM = UTC MEAN_ELEMENT_THEORY = SGP/SGP4 EPOCH = 2026-09-12T05:49:12.868320 MEAN_MOTION = 15.05314097 ECCENTRICITY = .00144614 INCLINATION = 82.4156 RA_OF_ASC_NODE = 165.0261 ARG_OF_PERICENTER = 269.635 MEAN_ANOMALY = 90.322 EPHEMERIS_TYPE = 0 CLASSIFICATION_TYPE = U NORAD_CAT_ID = 39491 ELEMENT_SET_NO = 999 REV_AT_EPOCH = 69190 BSTAR = .15964E-3 MEAN_MOTION_DOT = .23160E-4 MEAN_MOTION_DDOT = 0